Location: Rankin
(44.5961°N, 87.5034°W)
Time: 14:58:24
(UTC+00:00)

Envisat - Visible Passes

Search period start: 20 May 2022 00:00
Search period end: 30 May 2022 00:00
Orbit: 764 x 765 km, 98.2° (Epoch: 19 May)

Date Brightness Start Highest point End Pass type
(mag) Time Alt. Az. Time Alt. Az. Time Alt. Az.
21 May 5.1 09:38:06 10° NE 09:42:23 27° E 09:46:38 10° SSE visible
22 May 5.8 09:03:01 10° ENE 09:05:03 12° E 09:07:04 10° ESE visible
24 May 5.5 09:26:41 10° NE 09:30:32 21° E 09:34:20 10° SE visible
27 May 5.6 09:15:25 10° NE 09:18:39 17° E 09:21:52 10° SE visible
